User: anonymous   Login
Location: Quedlinburg
(51.7921°N, 11.1414°E)
Time: 19:47:28
(UTC+01:00)
Language:

ESTCUBE 1 - Orbit

View from above orbital plane
View from above orbital plane
View from above satellite
View from above satellite

Ground track
Ground track

The orbit is defined by the following mean orbital elements,

1 39161U          26066.12298744 +.00000000 +00000-0 +27414-3 0 00001
2 39161  97.7420 123.8542 0007921 358.8724   1.2470 14.81056515    02
Epoch (UTC): 07 March 2026 02:57:06
Eccentricity: 0.0007921
inclination: 97.7420°
perigee height: 620 km
apogee height: 632 km
right ascension of ascending node: 123.8542°
argument of perigee: 358.8724°
revolutions per day: 14.81056515
mean anomaly at epoch: 1.2470°

The dashed part of the orbit path shows where the satellite is in the earth's shadow,  

DLR